COSMOS 2433 (720)

Last updated on Thu Nov 21 2024 00:03:11 GMT+0000 (Coordinated Universal Time)

1 32275U 07052A 24325.48199731 -.00000055 00000+0 00000+0 0 9990 2 32275 65.8725 335.1736 0005840 251.0004 108.9672 2.13104064132832
UTC large
Height (km)
Speed (km/s)
/
Latitude / Longitude
Inclination (degrees)
Orbital Period (minutes)
Azimuth
Elevation
Range (km)
Doppler Factor

Next 0 passes for location: London (51.5072 / 0.1276)

Sorry there are no passes over London.